www.pogodaiklimat.ru

Погода и климат >> Архив погоды >> Индонезия >> Ларантука


ПОГОДА в Ларантуке

  • Прогноз погоды в Ларантуке
  • Монитор погоды в Ларантуке

АРХИВ ПОГОДЫ в Ларантуке

Время (UTC), дата Ветер
(напр.,м/с)
 
Видим.   Явления Облачность Т
(С)
Тd
(С)
f
(%)
Тe
(С)
Тes
(С)
Комфортность P
(гПа)
Po
(гПа)
Тmin
(С)
Tmax
(С)
R
(мм)
R24
(мм)
S
(см)
09 12.06 Ю 3 15 км 4/3 600 м
[Cu hum Ac trans Ci fib]
+31.0 +23.1 63 +41 +42 опасность
перегрева
1009.8 1008.6
12 12.06 З 2 8000 м 5/4 600 м
[Cu hum Ac trans Ci fib]
+27.6 +23.6 79 +38 +38 очень
душно
1011.8 1010.6 +33.8
15 12.06 Ю 2 8000 м 5/4 600 м
[Cu hum Ac trans Ci fib]
+26.8 +23.8 84 +37 +37 очень
душно
1012.0 1010.8
18 12.06 штиль 0 8000 м 5/3 600 м
[Cu hum Ac trans Ci fib]
+26.4 +23.1 82 +35 +35 очень
душно
1010.4 1009.2
21 12.06 Ю 2 8000 м 5/3 600 м
[Cu hum Ac trans Ci fib]
+26.8 +23.8 84 +37 +37 очень
душно
1010.5 1009.3
00 13.06 Ю 3 15 км 8/3 600 м
[Cu hum Ac trans Ci fib]
+28.4 +23.1 73 +38 +40 очень
душно
1012.3 1011.1 +26.0
03 13.06 Ю 4 15 км 8/3 600 м
[Cu hum Ac trans Ci fib]
+32.4 +23.8 61 +44 +49 опасность
перегрева
1011.7 1010.5
06 13.06 СЗ 3 13 км 6/4 600 м
[Cu med, cong Ac trans Ci fib]
+32.0 +24.0 63 +44 +49 опасность
перегрева
1008.9 1007.7
09 13.06 СВ 2 13 км 9/4 600 м
[Cu med, cong Ac trans Ci fib]
+30.0 +24.8 74 +43 +43 опасность
перегрева
1009.6 1008.4
12 13.06 штиль 0 8000 м 9/6 540 м
[Cu med, cong As op Ci fib]
+27.9 +24.4 81 +39 +39 очень
душно
1011.6 1010.4 +32.6
15 13.06 штиль 0 8000 м 9/6 540 м
[Cu med, cong As op Ci fib]
+26.6 +23.3 82 +36 +36 очень
душно
1012.0 1010.8
18 13.06 З 2 9000 м 6/3 600 м
[Cu hum Ac trans Ci fib]
+25.5 +21.0 76 +32 +32 очень
душно
1011.0 1009.8
21 13.06 З 4 9000 м 6/3 600 м
[Cu hum Ac trans Ci fib]
+25.5 +21.2 77 +32 +32 очень
душно
1010.4 1009.2
00 14.06 Ю 5 15 км 3/1 600 м
[Cu hum Ci fib]
+28.6 +22.2 68 +37 +39 очень
душно
1011.7 1010.5 +25.4
03 14.06 Ю 4 15 км 3/1 600 м
[Cu hum Ci fib]
+32.2 +20.9 51 +39 +48 очень
душно
1011.4 1010.2
06 14.06 ЮЗ 5 15 км 1/1 600 м
[Cu hum Ci fib]
+32.6 +19.2 45 +38 +43 очень
душно
1008.6 1007.4
09 14.06 СВ 2 15 км 3/3 600 м
[Cu hum Ci fib]
+30.8 +21.9 59 +39 +40 очень
душно
1009.0 1007.8
12 14.06 штиль 0 8000 м 1/1 600 м
[Cu hum Ci fib]
+26.2 +21.6 76 +34 +34 очень
душно
1011.3 1010.1 +33.4
15 14.06 штиль 0 8000 м 1/1 600 м
[Cu hum Ci fib]
+24.6 +21.5 83 +31 +31 очень
душно
1012.3 1011.1
18 14.06 Ю 3 8000 м 1/1 600 м
[Cu hum Ci fib]
+25.2 +19.2 69 +30 +30 душно 1011.4 1010.2
21 14.06 Ю 3 8000 м 1/1 600 м
[Cu hum Ci fib]
+25.8 +18.5 64 +31 +31 очень
душно
1011.1 1009.9
00 15.06 Ю 4 15 км 1/1 600 м
[Cu hum Ci fib]
+28.1 +19.6 60 +34 +36 очень
душно
1012.9 1011.7 +23.6
03 15.06 Ю 4 15 км 1/1 600 м
[Cu hum Ci fib]
+31.8 +18.9 46 +37 +47 очень
душно
1012.5 1011.3
06 15.06 ЮЗ 2 15 км 1/1 600 м
[Cu hum Ci fib]
+32.1 +19.2 46 +37 +47 очень
душно
1010.0 1008.8
09 15.06 Ю 1 15 км 1/1 600 м
[Cu hum Ci fib]
+30.5 +20.7 56 +38 +38 очень
душно
1010.1 1008.9
12 15.06 штиль 0 8000 м 1/1 600 м
[Cu hum Ci fib]
+25.0 +20.0 74 +31 +31 очень
душно
1012.2 1011.0 +32.6
15 15.06 штиль 0 8000 м 1/1 600 м
[Cu hum Ci fib]
+22.8 +18.9 79 +29 +29 очень
душно
1012.5 1011.3
18 15.06 штиль 0 8000 м 1/0
[Ci fib]
+22.0 +19.1 84 +27 +27 душно 1011.9 1010.8
21 15.06 штиль 0 8000 м 1/1 600 м
[Cu hum Ci fib]
+21.4 +18.8 85 +26 +26 душно 1011.9 1010.7
00 16.06 штиль 0 15 км 5/1 600 м
[Cu hum Ac trans Ci fib]
+27.0 +19.9 65 +33 +37 очень
душно
1013.5 1012.3 +21.2
03 16.06 Ю 4 15 км 4/3 600 м
[Cu hum Ci sp]
+31.8 +21.1 53 +39 +46 очень
душно
1012.5 1011.3
06 16.06 Ю 2 15 км 4/3 600 м
[Cu hum Ci fib]
+31.8 +20.9 53 +39 +47 очень
душно
1010.4 1009.2
09 16.06 З 2 15 км 3/3 600 м
[Cu hum Ci fib]
+30.4 +21.5 59 +38 +39 очень
душно
1010.4 1009.2
12 16.06 штиль 0 8000 м 3/3 600 м
[Cu hum Ci fib]
+25.0 +21.9 83 +32 +32 очень
душно
1012.7 1011.5 +33.2
15 16.06 штиль 0 8000 м 3/3 600 м
[Cu hum Ci fib]
+23.1 +19.4 80 +30 +30 очень
душно
1013.4 1012.2
18 16.06 штиль 0 8000 м 1/1 600 м
[Cu hum Ci fib]
+21.6 +18.0 80 +26 +26 душно 1012.9 1011.8
21 16.06 штиль 0 8000 м 1/1 600 м
[Cu hum Ci fib]
+21.4 +17.4 78 +25 +25 комфорт 1012.6 1011.5
00 17.06 Ю 5 15 км 1/1 600 м
[Cu hum Ci fib]
+27.4 +19.3 61 +33 +35 очень
душно
1014.1 1012.9 +21.4
03 17.06 СВ 3 15 км 1/1 600 м
[Cu hum Ci fib]
+31.6 +19.4 48 +37 +50 очень
душно
1013.4 1012.2
06 17.06 С 3 15 км 1/1 600 м
[Cu hum Ci fib]
+31.4 +19.5 49 +37 +46 очень
душно
1011.2 1010.0
09 17.06 штиль 0 15 км 1/1 600 м
[Cu hum Ci fib]
+29.8 +21.1 60 +37 +38 очень
душно
1011.6 1010.4
12 17.06 штиль 0 8000 м 3/3 600 м
[Cu hum Ci fib]
+25.4 +21.1 77 +32 +32 очень
душно
1013.6 1012.4 +32.0
15 17.06 штиль 0 8000 м 1/1 600 м
[Cu hum Ci fib]
+23.3 +20.5 84 +31 +31 очень
душно
1013.8 1012.6
18 17.06 ЮЗ 1 8000 м 1/1 600 м
[Cu hum Ci fib]
+22.6 +20.4 87 +29 +29 очень
душно
1012.6 1011.4
21 17.06 З 2 8000 м 1/1 600 м
[Cu hum Ci fib]
+23.2 +19.7 81 +30 +30 очень
душно
1012.5 1011.3
00 18.06 Ю 3 15 км 1/1 600 м
[Cu hum Ci fib]
+27.7 +20.5 65 +34 +37 очень
душно
1013.6 1012.4 +21.8
03 18.06 Ю 4 15 км 1/1 600 м
[Cu hum Ci fib]
+31.4 +20.3 52 +38 +47 очень
душно
1012.9 1011.7
06 18.06 С 3 15 км 3/3 600 м
[Cu hum Ci fib]
+30.8 +20.6 55 +38 +44 очень
душно
1010.7 1009.5
09 18.06 штиль 0 15 км 1/1 600 м
[Cu hum Ci fib]
+29.6 +20.9 60 +37 +38 очень
душно
1010.5 1009.3
12 18.06 ЮЗ 2 8000 м 1/1 600 м
[Cu hum Ci fib]
+26.8 +19.7 65 +33 +33 очень
душно
1012.2 1011.0 +31.6
15 18.06 штиль 0 8000 м 1/1 600 м
[Cu hum Ci fib]
+25.4 +18.1 64 +30 +30 душно 1012.8 1011.6
18 18.06 Ю 2 8000 м 1/1 600 м
[Cu hum Ci fib]
+24.2 +18.1 69 +29 +29 душно 1012.2 1011.0
21 18.06 З 1 8000 м 1/1 600 м
[Cu hum Ci fib]
+24.0 +19.1 74 +29 +29 душно 1012.0 1010.8
00 19.06 Ю 3 15 км 1/1 600 м
[Cu hum Ci fib]
+27.6 +20.9 67 +35 +38 очень
душно
1012.6 1011.4 +23.6
03 19.06 Ю 3 15 км 1/1 600 м
[Cu hum Ci fib]
+31.0 +20.1 52 +37 +49 очень
душно
1011.7 1010.5
06 19.06 СВ 3 15 км 1/1 600 м
[Cu hum Ci fib]
+31.6 +19.1 48 +37 +46 очень
душно
1009.9 1008.7

 

Местоположение метеостанции Ларантука (Индонезия): широта -8.27 долгота 122.97 высота над уровнем моря 9 м.

В архиве по умолчанию представлена погода в Ларантуке за последнюю неделю. Архивные данные за месяц целиком и за предыдущие месяцы, начиная с января 2011 года, Вы можете получить, выбрав интересующий диапазон дат из раскрывающегося списка и нажав кнопку "Ввод!".


*Определитесь, кто Вы:
робот инопланетянин человек

Внимание! Время в таблицах - всемирное. Для получения местного времени необходимо прибавить поправку, которая равна 8 ч.

Смотрите также архив погоды в соседних городах и на ближайших метеорологических станциях:

Погода в Маумере (Индонезия) (89 км)
Погода на Алоре (Индонезия) (175 км)
Погода в Купанге (Индонезия) (223 км)
Погода на Роти (Индонезия) (274 км)
Погода в Сабу (Индонезия) (278 км)
Погода в Рутенге (Индонезия) (280 км)
Погода в Бау-Бау (Индонезия) (314 км)
Погода в Аэропорту Умбу Механг Кунда (Индонезия) (329 км)
Погода в Кендари (Индонезия) (468 км)
Погода в Колаке (Индонезия) (469 км)

Пояснения к столбцам:

Ветер - указаны скорость ветра в м/с - средняя за 10 мин, порывы в срок и между сроками (в фигурных скобках) и направление, откуда дует ветер: С - северный, СВ - северо-восточный, В - восточный, ЮВ - юго-восточный, Ю - южный, ЮЗ - юго-западный, З - западный, СЗ - северо-западный.
Видимость - горизонтальная дальность видимости в метрах или километрах. При видимости от 1 до 10 км при отсутствии осадков обычно наблюдается дымка, при ухудшении видимости до 1 км и менее - туман. В сухую погоду видимость может ухудшаться дымом, пылью или мглою.
Явления - указаны атмосферные явления, наблюдавшиеся в срок или в последний час перед сроком; фигурными скобками обозначены явления, наблюдавшиеся между сроками (за 1-3 часа до срока); квадратными скобками обозначены град или гололедные отложения с указанием их диаметра в мм.
Облачность - указаны через наклонную черту общая и нижняя облачность в баллах и высота нижней границы облаков в метрах; квадратными скобками обозначены формы облаков: Ci - перистые, Cs - перисто-слоистые, Cc - перисто-кучевые, Ac - высококучевые, As - высокослоистые, Sc - слоисто-кучевые, Ns - слоисто-дождевые, Cu - кучевые, Cb - кучево-дождевые. Подробнее классификацию облаков см. в Атласе облаков (PDF).
T - Температура воздуха - температура, измеренная на высоте 2 м над землей.
Td - Температура точки росы - температура, при понижении до которой содержащийся в воздухе водяной пар достигнет насыщения.
f - Относительная влажность воздуха - влажноcть воздуха, измеренная на высоте 2 м над землей.
Te - Эффективная температура - температура, которую ощущает одетый по сезону человек в тени. Характеристика душности погоды. При расчете учитывается влияние влажности воздуха и скорости ветра на теплоощущения человека.
Tes - Эффективная температура на солнце - температура, которую ощущает человек, с поправкой на солнечный нагрев. Характеристика знойности погоды. Зависит от высоты солнца над горизонтом, облачности и скорости ветра. Ночью, в пасмурную погоду, а также при ветре 12 м/с и более поправка равна нулю.
P - Атмосферное давление - приведенное к уровню моря атмосферное давление.
Po - Атмосферное давление - измеренное на уровне метеостанции атмосферное давление.
Tmin - Минимальная температура - минимум температуры воздуха на высоте 2 м над землей.
Tmax - Максимальная температура - максимум температуры воздуха на высоте 2 м над землей.
R - Количество осадков - Количество выпавших осадков за период времени, мм. При наведении курсора мыши на число - период времени, за который выпало указанное количество осадков.
R24 - Количество осадков - Количество выпавших осадков за 24 часа, мм.
S - Снежный покров - Высота снежного покрова, см. При наведении курсора мыши на число - состояние снежного покрова и степень покрытия местности в баллах.